{"data":{"norad_id":63230,"intl_designator":"2025-052W","name":"ION SCV-017","alt_names":[],"object_type":"PAYLOAD","status":"ACTIVE","operator":null,"country":"IT","launch_date":"2025-03-15","launch_site_code":"AFWTR","launch_vehicle":null,"mission":null,"orbit_class":"UNKNOWN","rcs_meters":null,"size_class":null,"mass_kg":null,"dimensions":null,"purposes":[],"wikipedia_slug":null,"has_3d_model":false,"image_url":null,"decayed_at":null,"tle_current":{"epoch":"2026-05-25T04:14:12.496128Z","epoch_age_seconds":63387,"freshness":"FRESH","line1":"1 63230U 25052W   26145.17653352  .00004001  00000+0  15004-3 0  9995","line2":"2 63230  97.3935  40.5540 0023523 128.4005 231.9351 15.27569655 66529","mean_motion":15.27569655,"eccentricity":0.0023523,"inclination_deg":97.3935,"raan_deg":40.554,"arg_perigee_deg":128.4005,"mean_anomaly_deg":231.9351,"bstar":0.00015004,"rev_number":6652,"period_min":94.267387106482,"perigee_km":466.94043194556,"apogee_km":499.21971378657,"semimajor_km":6861.2170728661,"source":"CELESTRAK","updated_at":"2026-05-25T13:38:03.580578Z"}}}